Featured Flight

MET1453 - Detroit to Chicago

Boeing 737-200
711MT
0 hrs 40 mins
199 nm
Scheduled - Daily

Bid/PiRep Status

Bid was submitted on Dec 27 2016.

PiRep # 74493: Approved by Dave Nichols on December 30th, 2016 2:54 UTC

Departure

Departing from
Detroit (DTW)
Departure gate
Scheduled Departure
GMT 1950
Local 1550
METAR KDTW 210953Z 34004KT 10SM FEW035 SCT230 23/21 A2996 RMK AO2 SLP140 T02280211
TAF KDTW 210854Z 2109/2212 VRB03KT P6SM BKN250 TEMPO 2110/2113 6SM BR FM212000 17008KT P6SM SCT250 FM220100 15004KT P6SM SCT250 FM220600 13004KT P6SM BKN150 FM220900 12003KT P6SM SCT050 OVC080 PROB30 2209/2212 3SM -TSRA SCT035CB BKN050

Arrival

Arriving at
Chicago (MDW)
Arrival gate
Scheduled Arrival
GMT 2030
Local 1530

Route Map

Planning Resources

DTW JXN LFD GSH CGT MDW
JXN V116 LEROY GSH
CRL.BENJO.GIJ.
CRL-BENJO-GIJ
PALACE3 LEROY GSH GSH3
Route:
OFP Layout:
Units:
Detailed Navlog:
ETOPS Planning:
Plan Stepclimbs:
Runway Analysis:
Include NOTAMS:
FIR NOTAMS:
Flight Maps:

Popularity

Hub Current Bids PiReps this month Total PiReps
KMCI 0 0 1
KLAX 0 0 1
KBOS 0 0 0